GFSGBSN_prec_radar_189.txt.gz
Reflectivity
-20 -20 -20 -20 -20 -20 -20 -20 -20 -20 -20 -20 -20 -20 -20 -20 -20 -20 -20 -20 -20 -20 -20 -20 -20 -20 -20 -20 -20 -20 -20 -20 -20 -20 -20 -20 -20 -20 -20 -20 -20 -20 -20 -20 -20 -20 -20
-20 -20 -20 -20 -20 -20 -20 -20 -20 -20 -20 -20 -20 -20 -20 -20 -20 -20 -20 -20 -20 -20 -20 -20 -20 -20 -20 -20 -20 -20 -20 -20 -20 -20 -20 -20 -20 -20 -20 -20 -20 -20 -20 -20 -20 -20 -20
-20 -20 -20 -20 -20 -20 -20 3 -20 -20 -20 -20 -20 -20 -20 -20 -20 -20 -20 -20 -20 -20 -20 -20 -20 -20 -20 -20 -20 -20 -20 -20 -20 -20 -20 -20 -20 -20 -20 -20 -20 -20 -20 -20 -20 -20 -20
-20 -20 -20 -20 -20 -20 -20 -0 -20 -20 -20 -20 -20 -20 -20 -20 -20 -20 -20 -20 -20 -20 -20 -20 -20 -20 -20 -20 -20 -20 -20 -20 -20 -20 -20 -20 -20 -20 -20 -20 -20 -20 -20 -20 -20 -20 -20
-20 -20 -20 -20 -20 -20 -20 1 -20 -20 -20 -20 -20 -20 -20 -20 -20 -20 -20 -20 -20 -20 -20 -20 -20 -20 -20 -20 -20 -20 -20 -20 -20 -20 -20 -20 -20 -20 -20 -20 -20 -20 -20 -20 -20 -20 -20
-20 -20 -20 -20 -20 -20 -20 4 -13 -20 -20 -20 -20 -20 -20 -20 -20 -20 -20 -20 -20 -20 -20 -20 -20 -20 -20 -20 -20 -20 -20 -20 -20 -20 -20 -20 -20 -20 -20 -20 -20 -20 -20 -20 -20 -20 -20
-20 -20 -20 -20 -20 -20 -20 -20 3 -11 -20 -20 -20 -20 -20 -20 -20 -20 -20 -20 -20 -20 -20 -20 -20 -20 -20 -20 -20 -20 -20 -20 -20 -20 -20 -20 -20 -20 -20 -20 -20 -20 -20 -20 -20 -20 -20
-20 -20 -20 -20 -20 -20 -20 -20 -17 14 10 -20 -20 -20 -20 -20 -20 -20 -20 -20 -20 -20 -20 -20 -20 -20 -20 -20 -20 -20 -20 -20 -20 -20 -20 -20 -20 -20 -20 -20 -20 -20 -20 -20 -20 -20 -20
-20 -20 -20 -20 -20 -20 -20 -20 -17 -4 -11 -20 -2 -17 -20 -20 -20 -20 -20 -20 -20 -20 -20 -20 -20 -20 -20 -20 -20 -20 -20 -20 -20 -20 -20 -20 -20 -20 -20 -20 -20 -20 -20 -20 -20 -20 -20
-20 -20 -20 -20 -20 -20 -20 -20 -12 -8 -1 11 9 -20 -20 -20 -20 -20 -20 -12 -9 -20 -20 -20 -20 -20 -20 -20 -20 -20 -20 -20 -20 -20 -20 -20 -20 -20 -20 -20 -20 -20 -20 -20 -20 -20 -20
-20 -20 -20 -20 -20 -20 -20 -18 3 -2 10 6 8 -11 -20 -20 -20 -18 -4 -19 1 -17 -20 -20 -20 -20 -20 -20 -20 -20 -20 -20 -20 -20 -20 -20 -20 -20 -20 -20 -20 -20 -20 -20 -20 -20 -20
-20 -20 -20 -20 -20 -20 -20 3 17 12 -11 -3 -20 -20 -20 -20 -19 -10 -7 6 2 -13 -19 -20 -20 -20 -20 -20 -20 -20 -20 -20 -20 -20 -20 -20 -20 -20 -20 -20 -20 -20 -20 -20 -20 -20 -20
-20 -20 -20 6 -20 -3 17 9 3 10 -4 -20 -20 -20 -20 -12 -12 -9 -6 1 -0 -14 -20 -20 -20 -20 -20 -20 -20 -20 -20 -20 -20 -20 -20 -20 -20 -20 -20 -20 -20 -20 -20 -20 -20 -20 -20
4 13 10 -19 10 9 8 5 2 7 9 -10 -20 -19 9 -10 -4 -4 5 2 4 -20 -20 -20 -20 2 13 -20 -20 -20 -20 -20 -20 -20 -20 -20 -20 -20 -20 -20 -20 -20 -18 -20 -18 -20 -20
-11 -6 -13 12 17 14 16 17 20 16 16 7 17 -6 -11 -6 -0 -12 8 2 -20 -20 -20 -20 -10 14 -13 -13 -20 -20 -20 -20 -20 -20 7 8 -1 -20 -20 -20 -20 -20 -20 -20 -20 -20 -20
10 10 16 21 24 25 25 29 26 22 22 23 17 17 19 -18 -20 -2 -5 -18 -20 -20 -20 -2 2 -2 -19 -20 -6 -20 -20 -20 -20 -10 -8 0 -7 -10 -20 -20 -20 -20 -20 -20 -20 -20 -20
24 15 35 31 25 27 31 26 28 27 26 30 21 16 -20 -20 -20 25 5 -20 -20 -10 -2 19 10 11 -7 4 -12 -20 -18 -20 -20 -20 -20 -9 13 5 -18 -20 -20 -20 -20 -20 -16 -9 -2
27 31 40 26 31 31 22 22 23 27 25 25 6 -20 -11 12 10 27 20 -20 20 20 21 19 10 -7 -20 -19 -20 -20 -20 -20 -20 -20 -20 -20 5 9 -20 -20 -20 -20 -20 -20 -20 -20 -9
25 23 25 23 24 23 20 22 26 19 21 -16 -17 -20 17 23 -11 5 26 25 28 27 25 32 26 10 -20 -14 -0 -20 -20 -20 -20 -20 7 -8 4 13 7 -20 -20 -20 -20 -20 -20 4 14
33 29 21 19 19 22 23 25 22 -12 -17 1 -19 -3 6 31 25 28 25 22 15 17 15 8 -16 -20 -20 -20 -20 -8 -18 -12 -20 -20 -20 9 6 15 15 8 4 5 -20 -20 -6 14 13
27 23 21 27 24 21 25 15 -3 -0 -8 -12 2 4 -1 11 13 21 13 -3 2 5 -10 -20 -17 -20 -16 -15 -20 -20 -20 -20 -20 -20 -20 12 11 16 8 -20 -20 -20 -20 -20 -11 -20 13
27 34 30 20 21 3 12 9 -4 -1 7 -6 -18 -20 -4 3 2 8 7 6 -0 -13 -20 -20 -20 -20 -20 1 -20 -12 -18 -20 -12 -20 -20 -12 -6 2 -19 -20 -20 6 -20 -14 2 -20 -20
24 23 14 18 16 14 11 -2 -2 -12 -7 -13 -10 -15 -16 -10 -7 7 -0 -12 -19 -20 -20 -20 -20 -20 -20 -20 -20 -20 -20 -20 -20 -19 -20 3 -3 3 4 -20 -20 4 -17 16 -17 -20 14
4 13 17 20 16 5 2 -14 -20 -20 -20 -20 -20 -20 -20 -20 -14 -5 -14 -20 -20 -20 -20 -20 -20 -20 -20 -20 -20 -20 -20 -20 -20 -20 -20 -8 -20 7 9 -16 -6 16 -19 -12 -11 -20 -20
17 13 11 1 -9 -19 -20 -20 -20 -20 -20 -20 -20 -20 -20 -20 -20 -20 -20 -20 -20 -20 -20 -20 -20 -20 -20 -20 -20 -20 -20 -20 -20 -20 -20 -20 10 21 19 -4 -20 -20 -20 -20 -20 -20 -20
-3 -10 -20 -20 -20 -19 -17 -20 -20 -20 -20 -20 -20 -20 -19 -9 3 -5 -20 -20 -20 -20 -20 -20 -20 -20 -20 -20 -20 -20 -20 -20 -19 10 19 22 9 17 12 27 5 -20 -19 4 23 -19 12
-20 -20 -20 -13 2 5 -13 -20 -12 -20 -20 -20 -20 -13 -17 -20 -20 -20 -20 -20 -20 -20 -20 -20 -20 -20 -20 -5 -6 4 11 14 1 -17 -20 -20 -16 8 8 17 17 12 5 8 21 -7 -8
-20 -20 -4 0 8 -20 -20 -13 5 -20 -20 -20 -20 -20 -20 -20 -20 -20 -20 -20 -20 -20 -20 -20 -20 -10 -20 -20 -12 3 -20 -15 -7 -19 -20 7 0 2 -20 -12 -20 28 25 18 23 -13 -16
-20 -20 -20 4 12 13 -6 -20 12 -19 -20 -20 -20 -20 -20 -20 -20 -20 -20 -20 -20 -20 -20 -20 -20 -20 -20 -20 -7 -12 -20 -18 -20 -20 -20 -14 -19 14 4 -20 16 29 15 24 11 14 1

GFSGBSN_prec_radar_192.txt.gz
Reflectivity
-20 -20 -20 -20 -20 -20 -20 -20 -20 -20 -20 -20 -20 -20 -20 -20 -20 -20 -20 -20 -20 -20 -20 -20 -20 -20 -20 -20 -20 -20 -20 -20 -20 -20 -20 -20 -20 -20 -20 -20 -20 -20 -20 -20 -20 -20 -20
-20 -20 -20 -20 -20 -20 -20 -20 -20 -20 -20 -20 -20 -20 -20 -20 -20 -20 -20 -20 -20 -20 -20 -20 -20 -20 -20 -20 -20 -20 -20 -20 -20 -20 -20 -20 -20 -20 -20 -20 -20 -20 -20 -20 -20 -20 -20
-20 -20 -20 -20 -20 -20 -20 -20 -20 2 -20 -20 -20 -20 -20 -20 -20 -20 -20 -20 -20 -20 -20 -20 -20 -20 -20 -20 -20 -20 -20 -20 -20 -20 -20 -20 -20 -20 -20 -20 -20 -20 -20 -20 -20 -20 -20
-20 -20 -20 -20 -20 -20 -20 -20 -20 -2 -20 -20 -20 -20 -20 -20 -20 -20 -20 -20 -20 -20 -20 -20 -20 -20 -20 -20 -20 -20 -20 -20 -20 -20 -20 -20 -20 -20 -20 -20 -20 -20 -20 -20 -20 -20 -20
-20 -20 -20 -20 -20 -20 -20 -20 -20 0 -20 -20 -20 -20 -20 -20 -20 -20 -20 -20 -20 -20 -20 -20 -20 -20 -20 -20 -20 -20 -20 -20 -20 -20 -20 -20 -20 -20 -20 -20 -20 -20 -20 -20 -20 -20 -20
-20 -20 -20 -20 -20 -20 -20 -20 -20 -20 -20 -20 -20 -20 -20 -20 -20 -20 -20 -20 -20 -20 -20 -20 -20 -20 -20 -20 -20 -20 -20 -20 -20 -20 -20 -20 -20 -20 -20 -20 -20 -20 -20 -20 -20 -20 -20
-20 -20 -20 -20 -20 -20 -20 -20 -20 -20 -20 -20 -20 -20 -20 -20 -20 -20 -20 -20 -20 -20 -20 -20 -20 -20 -20 -20 -20 -20 -20 -20 -20 -20 -20 -20 -20 -20 -20 -20 -20 -20 -20 -20 -20 -20 -20
-20 -20 -20 -20 -20 -20 -20 -20 -20 -20 -20 -20 -20 -20 -20 -20 -20 -20 -20 -20 -20 -20 -20 -20 -20 -20 -20 -20 -20 -20 -20 -20 -20 -20 -20 -20 -20 -20 -20 -20 -20 -20 -20 -20 -20 -20 -20
-20 -20 -20 -20 -20 -20 -20 -20 -20 -20 -19 1 -20 -20 -20 -20 -20 -20 -20 -20 -20 -20 -20 -20 -20 -20 -20 -20 -20 -20 -20 -20 -20 -20 -20 -20 -20 -20 -20 -20 -20 -20 -20 -20 -20 -20 -20
-20 -20 -20 -20 -20 -20 -20 -20 -20 -20 -11 13 -1 -20 -20 -20 -20 -20 -20 -20 -20 -20 -20 -20 -20 -20 -20 -19 -19 -20 -20 -20 -20 -20 -20 -20 -20 -20 -20 -20 -20 -20 -20 -20 -20 -20 -20
-20 -20 -20 -20 -20 -20 -20 -20 -20 -20 11 14 -1 -11 -20 -20 -20 -20 -20 -20 -20 -20 -20 -20 -20 -20 -20 -20 -20 -20 -20 -20 -20 -20 -20 -20 -20 -20 -20 -20 -20 -20 -20 -20 -20 -20 -20
-20 -20 -20 -20 -20 -20 -20 -20 -20 -16 14 14 11 -2 -20 -20 -20 -20 -20 -11 -18 -20 -20 -20 -20 -20 -20 -20 -20 -20 -20 -20 -20 -20 -20 -20 -20 -20 -20 -20 -20 -20 -20 -20 -20 -20 -20
-20 -20 -20 -20 -20 5 14 -6 -20 7 16 14 13 11 -11 -20 -13 -20 -7 -5 -9 -8 -20 -20 -20 -20 -20 -20 -20 -20 -20 -20 -13 9 -15 -17 -20 -20 -12 -20 -20 -20 -20 -8 -19 -20 -20
-20 -20 -20 -11 -1 11 -2 1 8 18 12 16 13 11 11 -3 -12 -8 11 3 -4 -20 -20 -20 -20 -20 -20 -20 -20 -20 -0 -7 13 7 0 -20 -20 -17 -3 -0 -16 -19 -20 -20 -13 -17 -20
7 -12 -18 -18 13 -6 10 11 13 19 18 15 13 4 16 9 21 22 15 -5 -16 -20 -20 -20 -20 -20 -20 -20 -17 -15 -20 10 14 6 14 9 -20 -20 -20 -20 -20 -20 -20 -20 -12 -4 6
20 7 6 -9 -15 8 19 15 14 18 16 15 8 13 25 18 28 27 8 -20 -20 -20 -20 -20 -20 8 -13 -20 -20 -9 -17 16 16 9 4 22 8 -9 -18 -20 -20 -19 -20 -20 -20 4 4
-2 16 10 20 29 29 23 11 23 31 26 22 10 8 14 20 21 13 -3 -20 -20 -20 -20 1 22 24 22 5 -20 -18 6 5 17 20 5 21 27 0 -18 -20 -20 -20 -20 -20 -12 5 13
15 17 24 5 6 23 26 27 24 26 24 22 7 31 16 27 -6 22 18 -20 -18 -1 5 20 22 30 24 11 -19 -20 -13 10 8 0 -6 -9 11 4 -20 -20 -20 -20 -20 -20 -10 1 -1
5 14 18 20 25 34 34 28 26 22 19 20 22 27 29 20 7 -9 19 14 8 8 16 18 23 25 25 -6 -13 -20 -20 -20 -20 -20 -16 -4 14 6 -20 -20 -20 -20 -20 -1 6 9 17
17 17 21 25 31 36 33 27 24 20 25 28 27 16 28 29 22 -7 27 28 20 8 7 4 -1 -10 1 -0 5 -3 -20 -20 -20 -20 -20 -12 12 16 14 -5 -1 4 -20 -20 -20 -10 -10
15 17 15 24 27 23 25 27 27 23 18 9 -0 -4 22 21 19 20 19 10 -12 -5 -11 -3 7 10 8 1 -18 -20 -20 -20 -20 -20 -17 -20 -11 -5 -16 -17 -20 -20 -20 -20 -20 -20 3
31 32 24 25 19 26 30 19 14 7 -6 -6 6 7 14 7 8 4 10 6 9 -1 2 2 1 -13 0 -10 -20 -20 -20 -20 -20 -20 -20 -20 -9 2 8 -20 -20 -20 -20 -20 -20 -20 -6
20 23 27 28 21 20 17 8 -8 -13 7 -9 -19 -15 -20 -19 -20 -1 4 1 -11 -19 -20 -9 -20 -20 -20 -20 -20 -20 -20 -20 -20 -20 -20 -20 -3 7 8 -17 -20 -19 -20 -20 -20 14 4
19 18 18 15 -3 -7 -17 -20 -20 -20 -20 -20 -20 -20 -20 -20 -14 -8 -8 -17 -20 -20 -20 -20 -20 -20 -20 -20 -20 -20 -20 -20 -20 -20 -20 -20 -15 9 7 6 -4 -20 -20 -3 13 -18 -7
11 10 5 2 1 -18 -20 -20 -20 -20 -20 -20 -20 -20 -20 -20 -20 -20 -20 -20 -20 -20 -20 -20 -20 -20 -20 -20 -20 -20 -20 -20 -20 -20 -20 11 4 16 11 -17 -14 -1 21 21 -8 -8 12
8 -0 0 -16 -20 -1 -20 -20 -20 -20 -20 -20 -20 -20 -20 -20 -20 -20 -20 -20 -20 -20 -20 -20 -20 -20 -20 -20 -20 -20 -20 -18 -17 -20 -9 -20 -20 13 -5 10 11 10 13 -8 -0 -5 -18
6 3 -14 -20 -20 -2 -18 -20 -20 -20 -20 -20 -20 -20 -20 -20 -20 -20 -20 -20 -20 -20 -20 -20 -20 -20 -20 -6 -15 -3 -3 -14 -19 -14 -20 -20 -20 -20 1 6 -18 -15 13 31 13 13 34
-20 -20 -20 -4 -9 3 -4 -20 -19 -20 -20 -20 -20 -20 -20 -20 -20 -20 -20 -20 -20 -20 -20 -20 -20 -20 -20 -20 -20 -20 -20 -19 -10 -20 -20 -20 1 -17 -19 -12 -10 14 13 21 25 42 29
-20 -20 -19 2 -17 -1 -20 -20 5 -20 -20 -20 -20 -20 -20 -20 -20 -20 -20 -20 -20 -20 -20 -20 -20 -20 -20 -20 -20 -20 -20 -20 -20 -15 -20 -11 -20 -20 7 -20 6 28 29 32 32 26 -14

GFSGBSN_prec_radar_198.txt.gz
Reflectivity
-20 -20 -20 -20 -20 -20 -20 -20 -20 -20 -20 -20 -20 -20 -20 -20 -20 -20 -20 -20 -20 -20 -20 -20 -20 -20 -20 -20 -20 -20 -20 -20 -20 -20 -20 -20 -20 -20 -20 -20 -20 -20 -20 -20 -20 -20 -20
-20 -20 -20 -20 -20 -20 -20 -20 -20 -20 -20 -20 -20 -20 -20 -20 -20 -20 -20 -20 -20 -20 -20 -20 -20 -20 -20 -20 -20 -20 -20 -20 -20 -20 -20 -20 -20 -20 -20 -20 -20 -20 -20 -20 -20 -20 -20
-20 -20 -20 -20 -20 -20 -20 -20 -20 -20 -20 -20 -20 -20 -20 -20 -20 -20 -20 -20 -20 -20 -20 -20 -20 -20 -20 -20 -20 -20 -20 -20 -20 -20 -20 -20 -20 -20 -20 -20 -20 -20 -20 -20 -20 -20 -20
-20 -20 -20 -20 -20 -20 -20 -20 -20 -20 -20 -20 -20 -20 -20 -20 -20 -20 -20 -20 -20 -20 -20 -20 -20 -20 -20 -20 -20 -20 -20 -20 -20 -20 -20 -20 -20 -20 -20 -20 -20 -20 -20 -20 -20 -20 -20
-20 -20 -20 -20 -20 -20 -20 -20 -20 -20 -20 -20 -20 -20 -20 -20 -20 -20 -20 -20 -20 -20 -20 -20 -20 -20 -20 -20 -20 -20 -20 -20 -20 -20 -20 -20 -20 -20 -20 -20 -20 -20 -20 -20 -20 -20 -20
-20 -20 -20 -20 -20 -20 -20 -20 -20 -20 -20 -20 -20 -20 -20 -20 -20 -20 -20 -20 -20 -20 -20 -20 -20 -20 -20 -20 -20 -20 -20 -20 -20 -20 -20 -20 -20 -20 -20 -20 -20 -20 -20 -20 -20 -20 -20
-20 -20 -20 -20 -20 -20 -20 -20 -20 -20 -20 -20 4 -20 -20 -20 -20 -20 -20 -20 -20 -20 -20 -20 -20 -20 -20 -20 -20 -20 -20 -20 -20 -20 -20 -20 -20 -20 -20 -20 -20 -20 -20 -20 -20 -20 -20
-20 -20 -20 -20 -20 -20 -20 -20 -20 -20 -20 -20 4 -20 -20 -20 -20 -20 -20 -20 -20 -20 -20 -20 -20 -20 -20 -20 -20 -20 -20 -20 -20 -20 -20 -20 -20 -20 -20 -20 -20 -20 -20 -20 -20 -20 -20
-20 -20 -20 -20 -20 -20 -20 -20 -20 -20 -20 -20 -12 -20 -19 -20 -20 -20 -20 -20 -20 -20 -20 -20 -20 -20 -20 -20 -20 -20 -20 -20 -20 -20 -20 -20 -20 -20 -20 -20 -20 -20 -20 -20 -20 -20 -20
-20 -20 -20 -20 -20 -20 -20 -20 -20 -20 -20 -20 -17 11 5 10 -20 -20 -20 -20 -20 -20 -20 -20 -20 -20 -20 -20 -20 -20 -20 -20 -20 -20 -20 -20 -20 -20 -20 -20 -20 -20 -20 -20 -20 -20 -20
-20 -20 -20 -20 -20 -20 -20 -20 -20 -20 -20 -20 5 12 -9 0 -20 -20 -20 -20 -20 -20 -3 -20 -20 -20 -20 -20 -20 -20 -20 -20 -20 -20 -20 -20 -20 -20 -20 -20 -20 -20 -20 -20 -20 -20 -14
-20 -20 -20 -20 -20 -20 -20 -20 -20 -20 -12 -20 -20 -6 4 -11 -20 -20 -20 -20 -20 -19 -20 -20 -20 -20 -20 -20 -20 -20 -20 -20 -20 -20 -20 -20 -20 -20 -20 -20 -20 -20 -20 -20 -19 -20 -20
-20 -20 -20 -20 -20 13 5 17 -17 -4 -20 -20 -6 7 1 -17 -20 -19 -11 -20 -15 -20 -20 -20 -20 -20 -20 -20 -20 -20 -20 -20 -20 -20 -20 -20 -20 -20 -20 -20 0 -20 7 12 -16 -0 -2
-6 6 3 25 26 24 -4 4 3 15 8 -12 -20 8 -4 -20 -12 -4 -1 -10 -3 -16 -20 -20 -20 -20 -20 -20 -20 -20 -20 -20 -20 -20 -20 -20 -20 -18 -20 -20 -18 15 15 15 14 -13 -20
-19 -19 -19 5 22 19 6 18 18 17 -11 13 17 3 8 -20 -15 12 3 29 -9 -20 -20 -20 -20 -20 -20 -20 -20 -20 -20 -20 -20 -20 3 -20 -20 -20 -20 -20 -20 15 3 14 21 12 13
-15 19 22 25 14 -1 27 10 20 17 15 19 -9 -15 5 -13 16 19 23 22 4 -18 -20 -20 -20 -20 -20 -20 -20 -7 -18 -14 -3 -20 -20 -1 -12 -20 -20 -20 -20 -20 -20 -2 17 18 13
-19 -11 1 -18 -20 -8 19 28 12 15 26 27 27 23 22 22 22 24 23 12 -4 -4 -4 -8 -13 1 -7 -16 -19 0 10 -15 -15 -20 -12 -17 5 -20 -20 -20 -20 -20 -13 7 2 0 9
12 11 12 -20 19 28 29 28 31 35 35 33 38 36 32 20 25 34 22 3 22 28 26 18 -14 -4 -16 4 4 5 4 -19 -20 -20 -20 -6 -19 -20 -20 -20 -20 -20 1 -1 8 -3 -18
-3 14 23 26 27 16 21 23 27 28 21 30 36 33 35 35 28 32 34 28 23 28 18 13 6 1 2 -1 -7 -3 3 -20 -20 -20 -20 -20 -20 -20 -20 -20 -20 -20 -20 -20 -20 -19 -20
25 24 22 37 16 28 10 29 28 34 32 25 24 25 36 36 36 28 34 34 31 13 16 10 11 1 -2 -19 -11 -7 5 -0 -20 -20 -4 -10 -19 -20 -20 -20 -20 -20 -20 -20 -20 -8 -9
10 20 35 34 27 23 22 29 25 36 30 24 25 33 32 26 23 31 27 27 16 8 21 13 11 -10 -9 -4 -20 -15 -16 -20 -17 1 5 -4 -19 -20 -20 -20 -20 -20 -20 -20 -20 -20 4
34 28 34 38 15 15 26 24 27 25 29 19 31 30 36 32 32 30 24 24 19 26 10 10 -5 -9 -20 -20 -20 -17 -10 -9 -20 -20 -20 -20 -20 -20 -20 -20 -20 -20 -20 -20 -20 -20 -2
36 36 38 33 24 27 22 22 31 23 20 20 27 31 32 29 14 11 15 11 16 14 11 -20 -12 -6 -20 -20 -20 -20 -20 -20 -20 -20 -20 -20 -20 -16 -17 -20 -12 -19 -20 -20 -18 10 16
36 39 34 32 25 28 29 33 34 29 28 19 20 27 23 18 22 20 7 10 1 -9 -9 -19 -20 -20 -20 -20 -20 -20 -20 -20 -20 -20 -20 -20 -20 -12 14 -20 5 -6 -7 -20 11 -10 -9
35 34 35 28 16 14 11 10 19 22 23 16 3 -12 -7 -19 -18 -20 -20 -20 -20 -20 -20 -20 -20 -20 -20 -20 -20 -20 -20 -20 -20 -20 -20 -20 -14 18 5 -16 -20 -20 6 -20 -20 -2 26
31 27 21 26 26 18 24 25 15 9 2 -16 -20 -20 -20 -20 -20 -20 -20 -20 -20 -20 -20 -20 -20 -20 -20 -20 -20 -20 -20 -20 -20 -20 -20 -16 2 18 14 10 6 -3 -8 -20 -20 -4 26
28 26 23 21 10 5 -8 -12 -18 -20 -20 -20 -20 -20 -20 -20 -20 -20 -20 -20 -20 -20 -20 -20 -20 -20 -20 -20 -20 -20 -20 -17 -20 -20 -20 6 16 13 -3 -3 -1 -20 -20 -20 16 6 14
15 13 4 -2 4 5 3 -8 -20 -20 -20 -20 -20 -20 -20 -20 -20 -20 -20 -20 -20 -20 -20 -20 -20 -20 -14 -10 -2 1 1 -2 5 -20 -20 2 -10 -20 -3 18 9 -15 -20 10 10 11 21
7 6 -2 -3 -7 -11 -20 -20 -20 -20 -20 -20 -20 -20 -20 -20 -20 -20 -20 -20 -20 -20 -20 -20 -20 -20 -9 5 11 10 7 4 8 8 -20 -2 15 17 17 16 -20 -20 5 18 24 28 34

GFSGBSN_prec_radar_201.txt.gz
Reflectivity
-20 -20 -20 -20 -20 -20 -20 -20 -20 -20 -20 -20 -20 -20 -20 -20 -20 -20 -20 -20 -20 -20 -20 -20 -20 -20 -20 -20 -20 -20 -20 -20 -14 -20 -20 -20 -20 -20 -20 -20 -20 -20 -20 -20 -20 -20 -20
-20 -16 -20 -20 -20 -20 -20 -20 -20 -20 -20 -20 -20 -20 -20 -20 -20 -20 -20 -20 -20 -20 -20 -20 -20 -20 -20 -20 -20 -20 -20 -20 -20 -20 -20 -20 -20 -20 -20 -20 -20 -20 -20 -20 -20 -20 -20
-20 -20 -20 -20 -20 -20 -20 -20 -20 -20 -20 -20 -20 -20 -20 -20 -20 -20 -20 -20 -20 -20 -20 -20 -20 -20 -20 -20 -20 -20 -20 -20 -20 -20 -20 -20 -20 -20 -20 -20 -20 -20 -20 -20 -20 -20 -20
-20 -20 -20 -20 -20 -20 -20 -20 -20 -20 -20 -20 -20 -20 -20 -20 -20 -20 -20 -20 -20 -20 -20 -20 -20 -20 -20 -20 -20 -20 -20 -20 -20 -20 -20 -20 -20 -20 -20 -20 -20 -20 -20 -20 -20 -20 -20
-20 -20 -20 -20 -20 -20 -20 -20 -20 -20 -20 -20 -20 -20 -20 -20 -20 -20 -20 -20 -20 -20 -20 -20 -20 -20 -20 -20 -20 -20 -20 -20 -20 -20 -20 -20 -20 -20 -20 -20 -20 -20 -20 -20 -20 -20 -20
-20 -20 -20 -20 -20 -20 -20 -20 -20 -20 -20 -20 -20 -20 -20 -20 -20 -20 -20 -20 -20 -20 -20 -20 -20 -20 -20 -20 -20 -20 -20 -20 -20 -20 -20 -20 -20 -20 -20 -20 -20 -20 -20 -20 -20 -20 -20
-20 -20 -20 -20 -20 -20 -20 -20 -20 -20 -20 -20 -20 -20 -20 -20 -20 -20 -20 -20 -20 -20 -20 -20 -20 -20 -20 -20 -20 -20 -20 -20 -20 -20 -20 -20 -20 -20 -20 -20 -20 -20 -20 -20 -20 -20 -20
-20 -20 -20 -20 -20 -20 -20 -20 -20 -20 -20 -20 -20 -20 -20 -20 -20 -20 -20 -20 -20 -20 -20 -20 -20 -20 -20 -20 -20 -20 -20 -20 -20 -20 -20 -20 -20 -20 -20 -20 -20 -20 -20 -20 -20 -20 -20
-20 -20 -20 -20 -20 -20 -20 -20 -20 -20 -20 -20 -20 -20 -1 -20 -20 -20 -20 -20 -20 -20 -20 -20 -20 -20 -20 -20 -20 -20 -20 -20 -20 -20 -20 -20 -20 -20 -20 -20 -20 -20 -20 -20 -20 -20 -20
-20 -20 -20 -20 -20 -20 -20 -20 -20 -20 -20 -20 -20 -20 5 -20 -20 -20 -20 -20 -20 -20 -20 -20 -20 -20 -20 -20 -20 -20 -20 -20 -20 -20 -20 -20 -20 -20 -20 -20 -20 -20 -20 -20 -20 -20 -20
-20 -20 -20 -20 -20 -20 -20 -20 -20 -20 -20 -20 -20 -20 -17 -14 -20 -20 -20 -20 -20 -20 7 -20 -20 -20 -20 -20 -20 -20 -20 -20 -20 -20 -20 -20 -20 -20 -20 -20 -20 -20 -20 -20 -20 -20 -20
-20 -20 -20 -20 -20 -20 -20 -20 -20 -20 -20 -20 -20 -17 -6 -4 -20 -20 -20 -20 -20 -3 4 -20 -20 -20 -20 -20 -20 -20 -20 -20 -20 -20 -20 -20 -20 -20 -20 -20 -20 -20 -20 -20 -20 -20 -17
-1 -20 -20 -20 -20 -20 -20 -20 -20 -8 10 21 10 -2 -18 -20 -18 -20 -20 -20 -17 -3 -20 -20 -20 -20 -20 -20 -20 -20 -20 -20 -20 -20 -20 -20 -20 -20 -20 -20 -20 -20 -20 -20 -17 -1 -1
-20 -20 -20 -20 -20 -20 -20 -20 -2 10 18 15 5 12 8 -20 -20 -20 -8 -10 1 -1 -20 -20 -20 -20 -20 -20 -20 -20 -20 -20 -20 -20 -20 -20 -20 -20 -20 -20 -20 -20 -11 4 19 -14 -20
-12 -20 -20 -20 -20 -20 -20 -18 7 17 1 19 25 28 1 -5 -17 9 -19 19 -1 -13 -20 -20 -20 -20 -20 -20 -20 -20 -20 -20 -20 -20 -20 -20 -15 -20 -20 -20 -20 -1 -20 7 12 -5 12
-20 -20 -20 -15 -15 -10 -9 6 20 12 22 30 27 26 20 12 22 -11 15 23 4 -7 -20 -11 -9 3 -14 -2 -17 -19 -20 -20 -20 -20 -20 -20 -20 -20 -20 -20 -20 -20 -15 -16 26 13 7
-2 0 13 20 36 7 13 12 -6 -10 25 32 33 31 23 17 26 33 28 14 -7 -15 -20 15 26 25 6 -18 -20 -20 -7 -19 -20 -20 -20 -20 -8 -20 -20 -20 -20 -18 -1 8 17 9 15
-4 -7 -4 22 36 15 2 -11 -19 30 39 36 33 35 29 24 25 32 18 9 9 17 29 33 27 7 14 14 10 -9 1 -19 -20 -20 -20 -20 -20 -20 -20 -20 -20 -20 -20 -10 12 1 -11
31 25 22 36 16 26 25 11 26 22 37 37 32 32 27 24 17 16 20 11 7 24 28 27 19 14 7 6 14 10 1 -20 -20 -20 -20 -20 -20 -20 -20 -20 -16 -17 -11 -20 -20 -20 -20
26 36 24 24 32 21 34 24 26 23 38 32 34 31 35 32 31 21 18 29 32 27 23 17 22 18 7 10 8 3 14 -15 -20 -20 -20 -20 -20 -20 -20 -20 -20 -20 -20 -20 -20 -20 -20
25 31 30 32 32 35 27 22 27 23 32 38 31 26 17 19 27 29 31 35 25 26 21 22 26 1 7 -1 5 4 2 17 -9 -20 -20 -20 -20 -20 -20 -20 -20 -20 -20 -20 -20 -20 -20
14 22 23 12 20 18 22 17 25 30 34 30 37 20 27 35 30 34 35 28 19 28 21 20 14 6 15 4 -20 -20 -20 -20 -20 -20 -20 -20 -12 -20 -20 -20 -20 -20 -20 -20 -20 -20 -20
9 19 0 12 17 10 9 12 24 31 29 34 34 24 34 38 31 26 22 23 26 23 9 -4 -13 7 1 -20 -20 -20 -20 -20 -20 -20 -20 -20 -20 -16 -20 -20 -20 -15 -20 -20 -13 3 11
6 22 -5 5 10 -0 8 23 26 34 35 38 39 35 35 33 32 31 25 23 22 22 8 -17 -11 -1 -12 -20 -20 -20 -20 -20 -20 -20 -20 -20 -20 -20 -7 -9 8 -20 -9 -3 -9 2 3
-3 -10 -4 10 3 -7 7 3 17 26 27 27 24 25 22 23 -0 -6 -20 -16 -17 -16 1 -12 -12 -15 -4 -15 -20 -20 -20 -20 -20 -20 -20 -20 -20 1 10 -2 -15 -20 -6 16 -20 -20 -6
17 21 9 5 -12 7 17 18 13 19 23 24 10 6 2 -14 -14 -20 -20 -20 -20 -20 -20 -20 -20 -20 -20 -20 -20 -20 -20 -20 -20 -20 -20 -20 -0 3 11 19 17 -20 -4 17 -20 -16 29
20 18 8 -3 -12 -1 2 7 16 -2 -14 -20 -20 -20 -20 -20 -20 -20 -20 -20 -20 -20 -20 -20 -20 -20 -20 -14 -1 -18 -20 -20 -20 -17 -20 -20 5 22 22 20 17 -18 14 -12 -20 -2 14
24 13 5 -5 -20 -17 -6 -16 -20 -20 -20 -20 -20 -20 -13 -8 -18 -10 -19 -16 -20 -20 -20 -20 -16 -20 3 -11 -2 -5 3 -20 6 -17 -20 -13 -3 15 15 17 7 14 4 -19 -6 8 19
16 14 -4 -19 -11 -20 -20 -20 -19 -16 -20 -20 -20 -20 -20 -20 -20 -20 -20 -20 -20 -20 -20 -20 -20 -20 -20 1 6 15 19 14 6 9 -20 -4 -9 13 17 11 -0 19 -6 -16 3 6 6